Погода в Лисине

Россия / Омская область     56°23′54″N   75°05′37″E
темп.,
°C
ветер,
м/с
пор.,
м/с
влажн.,
%
обл.,
%
осадки,
мм/ч
давл.,
гПа
погр.,
м
28 июля, ср
ср2800:00+12юз22735 0.0 100824
03:00+11ю227611 0.0 100829
06:00+12ююз2768100 0.0 1008170
09:00+17юз355666 0.0 1007481
12:00+18ююз376318 0.0 1007575
15:00+19з117062 0.2 100622
18:00+16зюз4993100 2.8 1006568
21:00+14ююв1398100 7.4 100693
29 июля, чт
чт2900:00+13ююз2699100 8.6 1006156
03:00+13юз2798100 0.6 1005255
06:00+10зюз38976 0.9 1007207
09:00+13зсз378119 0.0 1008491
12:00+17зсз455259 0.1 10081791
15:00+17зсз3551100 0.1 10091345
18:00+17сз464438 0.1 10091397
21:00+12вюв117126 0.0 100910
30 июля, пт
пт3000:00+10юз227590 0.0 101030
03:00+10ю247566 0.0 101066
06:00+11юз1572100 0.0 1011154
09:00+15юз4105565 0.0 1011537
12:00+20юз5845100 0.0 10111245
15:00+20юз4949100 0.0 10101190
18:00+16зюз3979100 0.4 1010340
21:00+15ю2284100 0.0 101137
31 июля, сб
сб3100:00+13ююв378325 0.0 1010115
03:00+13ююз377884 0.0 1010136
06:00+13ю2874100 0.0 1010182
09:00+15ю31368100 0.0 1009688
12:00+19ю4962100 0.1 1008819
15:00+16вюв3878100 0.3 1008264
18:00+20ююв256225 0.3 1008483
21:00+17всв23766 0.0 100955
1 августа, вс
вс100:00+14ссв238546 0.0 101058
03:00+13с22905 0.0 101035
06:00+12с23893 0.0 101264
09:00+19с236219 0.0 1012401
12:00+24ссз234822 0.0 10121328
15:00+25сз334618 0.0 10111807
18:00+25с235061 0.0 10111476
21:00+19всв117588 0.0 101211